IRIDIUM 30

Last updated on Mon Jun 19 2017 00:17:51 GMT+0000 (Coordinated Universal Time)

1 24949U 97051F 17169.60957942 -.00000045 00000-0 -23066-4 0 9998 2 24949 86.3983 286.6189 0001577 94.3792 265.7584 14.34215689 34390
UTC large
Height (km)
Speed (km/s)
/
Latitude / Longitude
Inclination (degrees)
Orbital Period (minutes)
Azimuth
Elevation
Range (km)
Doppler Factor

Next 0 passes for location: London (51.5072 / 0.1276)

Sorry there are no passes over London.